Change the Weather History Date:

Wednesday, February 12, 2014

  Actual Average Record
Temperature  
Mean Temperature 22 °F -  
Max Temperature 28 °F 34 °F 69 °F (1951)
Min Temperature 16 °F 13 °F -16 °F (1981)
Degree Days  
Heating Degree Days 43    
Moisture  
Dew Point 16 °F    
Average Humidity 76    
Maximum Humidity 86    
Minimum Humidity 65    
Precipitation  
Precipitation 0.00 in - - ()
Sea Level Pressure  
Sea Level Pressure 30.05 in    
Wind  
Wind Speed 12 mph (ESE)    
Max Wind Speed 23 mph    
Max Gust Speed -    
Visibility 6 miles    
Events Snow    
Averages and records for this station are not official NWS values.
T = Trace of Precipitation, MM = Missing Value Source: NWS Daily Summary

Daily Weather History Graph

Daily Weather History Graph

Search for Another Location

Airport or City:

Trip Planner

Search our weather history database for the weather conditions in past years. The results will help you decide how hot, cold, wet, or windy it might be!

Date:

Astronomy

Feb. 12, 2014 Rise Set
Actual Time 7:24 AM CST 5:54 PM CST
Civil Twilight 6:55 AM CST 6:23 PM CST
Nautical Twilight 6:22 AM CST 6:55 PM CST
Astronomical Twilight 5:50 AM CST 7:28 PM CST
Moon 4:08 PM CST (2/12) 5:42 AM CST (2/12)
Length of Visible Light 11h 27m
Length of Day
10h 30m
Waxing Gibbous, 95% of the Moon is Illuminated
Feb 12
Waxing Gibbous
Feb 14
Full
Feb 22
Last Quarter
Mar 1
New
Mar 8
First Quarter

Hourly Weather History & Observations

Time (CST) Temp. Windchill Dew Point Humidity Pressure Visibility Wind Dir Wind Speed Gust Speed Precip Events Conditions
12:54 AM 19.0 °F 3.6 °F 9.0 °F 65% 30.08 in 10.0 mi South 18.4 mph - N/A   Overcast
1:54 AM 19.9 °F 5.7 °F 10.0 °F 65% 30.06 in 10.0 mi South 16.1 mph - N/A   Overcast
2:54 AM 21.0 °F 9.3 °F 12.0 °F 68% 30.08 in 10.0 mi South 11.5 mph - N/A   Overcast
3:54 AM 19.9 °F 8.6 °F 10.9 °F 68% 30.06 in 10.0 mi South 10.4 mph - N/A   Overcast
4:54 AM 21.0 °F 9.9 °F 12.0 °F 68% 30.05 in 10.0 mi South 10.4 mph - N/A   Overcast
5:54 AM 17.1 °F 10.0 °F 10.0 °F 74% 30.06 in 10.0 mi South 4.6 mph - N/A   Partly Cloudy
6:54 AM 16.0 °F - 9.0 °F 74% 30.08 in 10.0 mi Calm Calm - N/A   Overcast
7:54 AM 19.9 °F - 12.9 °F 74% 30.11 in 2.0 mi Calm Calm - 0.00 in Snow Light Snow
8:01 AM 19.0 °F - 12.9 °F 77% 30.07 in 1.0 mi Calm Calm - 0.00 in Snow Light Snow
8:15 AM 19.9 °F 14.9 °F 14.0 °F 78% 30.07 in 0.8 mi North 3.5 mph - 0.00 in Snow Light Snow
8:29 AM 19.9 °F 12.1 °F 15.1 °F 81% 30.07 in 0.8 mi North 5.8 mph - 0.00 in Snow Light Snow
8:40 AM 19.9 °F 10.1 °F 15.1 °F 81% 30.08 in 1.0 mi North 8.1 mph - 0.00 in Snow Light Snow
8:51 AM 19.4 °F 8.6 °F 15.8 °F 86% 30.08 in 1.5 mi North 9.2 mph - 0.00 in Snow Light Snow
8:54 AM 19.9 °F 9.3 °F 15.1 °F 81% 30.12 in 1.8 mi North 9.2 mph - 0.00 in Snow Light Snow
9:32 AM 21.9 °F 7.3 °F 17.1 °F 82% 30.10 in 2.5 mi North 18.4 mph - 0.00 in Snow Light Snow
9:41 AM 21.9 °F 6.9 °F 17.1 °F 82% 30.10 in 3.0 mi North 19.6 mph - 0.00 in   Haze
9:54 AM 23.0 °F 9.6 °F 18.0 °F 81% 30.14 in 5.0 mi North 16.1 mph - 0.00 in   Overcast
10:54 AM 26.1 °F 12.0 °F 19.0 °F 75% 30.15 in 7.0 mi North 20.7 mph - 0.00 in   Overcast
11:23 AM 26.1 °F 11.3 °F 18.0 °F 71% 30.12 in 5.0 mi North 23.0 mph - N/A   Haze
11:54 AM 26.1 °F 12.3 °F 18.0 °F 71% 30.16 in 6.0 mi North 19.6 mph - N/A   Haze
12:01 PM 26.1 °F 12.7 °F 19.0 °F 75% 30.11 in 7.0 mi North 18.4 mph - N/A   Overcast
12:54 PM 27.0 °F 14.7 °F 19.9 °F 75% 30.13 in 6.0 mi North 16.1 mph - N/A   Haze
1:54 PM 27.0 °F 16.1 °F 19.9 °F 75% 30.11 in 5.0 mi North 12.7 mph - N/A   Haze
2:19 PM 27.0 °F 17.3 °F 19.0 °F 72% 30.05 in 5.0 mi North 10.4 mph - N/A   Haze
2:54 PM 28.0 °F 20.0 °F 19.0 °F 69% 30.07 in 7.0 mi NNE 8.1 mph - N/A   Overcast
3:54 PM 27.0 °F 23.0 °F 19.0 °F 72% 30.05 in 7.0 mi Variable 3.5 mph - N/A   Overcast
4:49 PM 26.6 °F 21.2 °F 19.4 °F 74% 29.99 in 7.0 mi ESE 4.6 mph - N/A   Overcast
4:54 PM 26.1 °F 19.4 °F 19.0 °F 75% 30.02 in 7.0 mi SE 5.8 mph - N/A   Overcast
5:31 PM 23.0 °F 15.8 °F 17.1 °F 78% 29.98 in 6.0 mi SSW 5.8 mph - N/A   Haze
5:54 PM 23.0 °F 14.7 °F 18.0 °F 81% 30.01 in 6.0 mi South 6.9 mph - N/A   Haze
6:13 PM 24.1 °F 14.4 °F 19.0 °F 81% 29.99 in 6.0 mi South 9.2 mph - N/A   Haze
6:54 PM 25.0 °F 15.5 °F 19.9 °F 81% 30.04 in 5.0 mi South 9.2 mph - N/A   Haze
7:54 PM 24.1 °F 12.5 °F 19.9 °F 84% 29.99 in 6.0 mi South 12.7 mph - N/A   Overcast
8:44 PM 24.1 °F 14.4 °F 19.0 °F 81% 29.94 in 6.0 mi South 9.2 mph - N/A   Haze
8:54 PM 23.0 °F 13.1 °F 19.0 °F 85% 29.97 in 6.0 mi SSW 9.2 mph - N/A   Clear
9:54 PM 23.0 °F 11.7 °F 18.0 °F 81% 29.94 in 6.0 mi South 11.5 mph - N/A   Haze
10:54 PM 25.0 °F 11.7 °F 19.0 °F 78% 29.87 in 6.0 mi South 17.3 mph - N/A   Haze
11:54 PM 26.1 °F 14.5 °F 21.0 °F 81% 29.85 in 6.0 mi South 13.8 mph - N/A   Haze